TimeMDT,TemperatureF,Dew PointF,Humidity,Sea Level PressureIn,VisibilityMPH,Wind Direction,Wind SpeedMPH,Gust SpeedMPH,PrecipitationIn,Events,Conditions,WindDirDegrees,DateUTC
12:53 AM,63.0,52.0,67,29.67,10.0,East,4.6,-,N/A,,Clear,100,2013-07-21 06:53:00
1:53 AM,62.1,52.0,70,29.65,10.0,Calm,Calm,-,N/A,,Clear,0,2013-07-21 07:53:00
2:53 AM,59.0,51.1,75,29.67,10.0,Calm,Calm,-,N/A,,Clear,0,2013-07-21 08:53:00
3:53 AM,59.0,52.0,78,29.68,10.0,Calm,Calm,-,N/A,,Clear,0,2013-07-21 09:53:00
4:53 AM,57.9,53.1,84,29.67,10.0,Calm,Calm,-,N/A,,Clear,0,2013-07-21 10:53:00
5:53 AM,57.0,52.0,83,29.71,10.0,Calm,Calm,-,N/A,,Mostly Cloudy,0,2013-07-21 11:53:00
6:53 AM,59.0,54.0,83,29.73,10.0,Calm,Calm,-,N/A,,Partly Cloudy,0,2013-07-21 12:53:00
7:53 AM,61.0,54.0,78,29.73,10.0,Calm,Calm,-,N/A,,Clear,0,2013-07-21 13:53:00
8:53 AM,64.9,55.0,70,29.74,10.0,Calm,Calm,-,N/A,,Partly Cloudy,0,2013-07-21 14:53:00
9:53 AM,70.0,55.9,61,29.71,10.0,Variable,4.6,-,N/A,,Partly Cloudy,0,2013-07-21 15:53:00
10:53 AM,73.9,55.9,53,29.70,10.0,Variable,3.5,-,N/A,,Clear,0,2013-07-21 16:53:00
11:53 AM,79.0,53.1,40,29.66,10.0,WSW,5.8,-,N/A,,Mostly Cloudy,240,2013-07-21 17:53:00
12:53 PM,82.0,48.9,31,29.64,10.0,Variable,3.5,-,N/A,,Clear,0,2013-07-21 18:53:00
1:53 PM,82.9,48.9,31,29.61,10.0,Calm,Calm,-,N/A,,Clear,0,2013-07-21 19:53:00
2:53 PM,84.9,48.9,29,29.61,10.0,Variable,5.8,-,N/A,,Scattered Clouds,0,2013-07-21 20:53:00
3:16 PM,86.0,48.2,27,30.11,10.0,SW,9.2,17.3,N/A,Thunderstorm,Clear,230,2013-07-21 21:16:00
3:53 PM,80.1,50.0,35,29.63,10.0,South,19.6,28.8,N/A,,Overcast,170,2013-07-21 21:53:00
4:28 PM,80.6,48.2,32,30.12,10.0,WSW,12.7,-,N/A,Thunderstorm,Mostly Cloudy,240,2013-07-21 22:28:00
4:44 PM,77.0,53.6,44,30.15,10.0,North,12.7,-,N/A,,Overcast,350,2013-07-21 22:44:00
4:53 PM,71.1,55.0,57,29.74,10.0,NNE,15.0,28.8,0.00,Rain-Thunderstorm,Light Rain,20,2013-07-21 22:53:00
5:36 PM,69.8,53.6,56,30.12,10.0,NW,13.8,-,0.00,,Clear,310,2013-07-21 23:36:00
5:53 PM,70.0,53.1,55,29.73,10.0,Variable,5.8,-,0.00,,Clear,0,2013-07-21 23:53:00
6:53 PM,73.0,51.1,46,29.71,10.0,SSE,5.8,-,N/A,,Scattered Clouds,160,2013-07-22 00:53:00
7:53 PM,66.9,57.0,70,29.79,6.0,SSW,17.3,25.3,0.06,Rain,Rain,200,2013-07-22 01:53:00
8:53 PM,62.1,57.0,84,29.84,10.0,WSW,11.5,-,0.05,Rain,Light Rain,240,2013-07-22 02:53:00
9:53 PM,60.1,57.9,93,29.83,7.0,SW,11.5,-,0.11,Rain,Rain,220,2013-07-22 03:53:00
10:53 PM,61.0,57.0,87,29.79,10.0,WNW,5.8,-,0.01,,Overcast,300,2013-07-22 04:53:00
11:53 PM,61.0,57.9,90,29.73,10.0,NE,10.4,-,0.00,,Overcast,50,2013-07-22 05:53:00